Location: Cudham
(51.3000°N, 0.0667°E)
Time: 15:55:14
(UTC+00:00)

USA 229 DEB - Pass Details

Date: 28 April 2026
Orbit: 844 x 1364 km, 63.4° (Epoch: 10 January)

Event Time Altitude Azimuth Distance (km) Brightness Sun altitude
Rises 22:16:31 0° 315° (NW) 3,942 7.9 -20.7°
Reaches altitude 10° 22:19:04 10° 314° (NW) 3,051 7.1 -20.9°
Maximum altitude 22:26:28 77° 230° (SW) 1,284 4.0 -21.4°
Enters shadow 22:30:16 35° 151° (SSE) 1,953 4.5 -21.6°
